THOR ABLESTAR DEB, 141

Orbit data source: Space-Track

THOR ABLESTAR DEB, 141 is space debris in LEO originally from a launch on Thu, 29 Jun 1961 UTC launched from the Air Force Eastern Test Range (AFETR). Debris objects in space refer to the collection of defunct objects orbiting the Earth. Examples of debris include non-operational satellites, rocket bodies, and fragments generated from explosions, collisions, or faulty payload assembly.

Loading next visibility...
Identifier
141, 1961-015AB
Orbit
LEO
Country
Flag of USUS
Related business
Manufacturer
Unknown
Mission
Spacecraft
Bus & Motor
Unknown
Mass
Unknown
Launch date (UTC)
1961-06-29 (64 years ago)
Launch vehicle
Unknown
Launch site
Air Force Eastern Test Range (AFETR)
Object type
Payload
Rocket body
Debris
Shape & HBR
Unknown shape, 0.5 m
Radar Cross Section
Medium (>0.1 m² and <1 m²)

Expand to show TLE details & history
Last TLE update: 10 hours ago

TLE from 10 hours ago
0 THOR ABLESTAR DEB
1 00141U 61015AB  25352.60803954  .00000329  00000-0  33211-3 0  9998
2 00141  66.5882 127.4033 0053421 172.0002 188.1939 13.88854472246742
Epoch: 2025-12-18T14:35Z
TLE epoch observation values (Epoch: 2025-12-18T14:35:34.616Z)
Latitude
0.00002°
Longitude
-178.95203°
Altitude
973.371 km
Speed
7.346 km/s
True Right ascension
08h 29m 36s
True Declination
0° 00' 00"
Sunlit
Object was in full shadow at epoch
Visualization orbit readout
Latitude
Unknown
Longitude
Unknown
Altitude
Unknown
Speed
Unknown
Apparent Right ascension
Unknown
Apparent Declination
Unknown
Sunlit
N/A
Visualization observer readout
Local Sidereal Time
23:08:48
Azimuth
Unknown
Elevation
Unknown
Doppler factor
Unknown
Orbital elements
Apogee altitude
970.114 km
Perigee altitude
892.021 km
Semi-major axis
7,309.204 km
Eccentricity
0.00534
Inclination
66.5882°
RAAN
127.4033°
Arg. of periapsis
172.0002°
True anomaly
188.10723°
Mean anomaly
188.1939°
Eccentric anomaly
188.15051°
Mean motion
3.47327 °/min
Orbital period
103.65 mins
BSTAR
0.00033211
Loading maneuver chart data...
Computing Atmospheric mass density...

Documentation

Showing up to 5 results
|